FW6474 Weather Reports


Display with metric or nautical units.
time (UTC)temp
F
wind
direction
speed
MPH
gust
MPH
rain 1hr
in
rain 24hr
in
rain mn
in
humidity
%
barometer
mb
20240526203429 74 139 6.0 15.0 0.00 0.00 0.00 60 1007.1
20240526202924 74 62 6.0 15.0 0.00 0.00 0.00 60 1007.1
20240526202424 74 145 6.0 15.0 0.00 0.00 0.00 60 1007.3
20240526202154 74 143 7.0 16.0 0.00 0.00 0.00 59 1007.3
20240526201424 74 142 8.0 16.0 0.00 0.00 0.00 60 1007.3
20240526200925 74 74 7.0 16.0 0.00 0.00 0.00 59 1007.3
20240526200423 75 102 6.0 15.0 0.00 0.00 0.00 59 1007.4
20240526195925 74 217 5.0 13.0 0.00 0.00 0.00 59 1007.7
20240526195656 75 122 5.0 13.0 0.00 0.00 0.00 60 1007.6
20240526194921 75 119 5.0 13.0 0.00 0.00 0.00 59 1007.8
20240526194421 74 25 6.0 18.0 0.00 0.00 0.00 59 1007.8
20240526193922 74 82 7.0 20.0 0.00 0.00 0.00 59 1007.8
20240526193423 75 144 8.0 23.0 0.00 0.00 0.00 59 1007.9
20240526192924 75 104 8.0 23.0 0.00 0.00 0.00 59 1008.1
20240526192418 75 143 7.0 16.0 0.00 0.00 0.00 58 1008.1
20240526191917 74 90 8.0 19.0 0.00 0.00 0.00 58 1008.3
20240526191415 74 65 9.0 19.0 0.00 0.00 0.00 60 1008.6
20240526190917 74 162 9.0 19.0 0.00 0.00 0.00 59 1008.7
20240526190414 74 109 8.0 16.0 0.00 0.00 0.00 61 1008.9
20240526185914 75 124 8.0 15.0 0.00 0.00 0.00 61 1008.9
20240526185414 75 127 7.0 18.0 0.00 0.00 0.00 62 1009.0
20240526184911 75 119 7.0 18.0 0.00 0.00 0.00 59 1009.4
20240526184418 75 109 6.0 12.0 0.00 0.00 0.00 61 1009.7
20240526184413 75 110 7.0 16.0 0.00 0.00 0.00 60 1009.4
20240526183409 76 77 6.0 13.0 0.00 0.00 0.00 60 1009.7
20240526182911 76 102 6.0 13.0 0.00 0.00 0.00 61 1009.8
20240526182410 75 112 7.0 15.0 0.00 0.00 0.00 61 1010.0
20240526181907 75 146 8.0 15.0 0.00 0.00 0.00 60 1010.1
20240526181408 75 138 7.0 16.0 0.00 0.00 0.00 60 1010.2
20240526180909 76 109 7.0 16.0 0.00 0.00 0.00 60 1010.4
20240526180407 76 58 7.0 15.0 0.00 0.00 0.00 60 1010.6
20240526175907 76 72 5.0 15.0 0.00 0.00 0.00 59 1010.7
20240526175401 76 24 5.0 14.0 0.00 0.00 0.00 59 1011.0
20240526175132 76 103 6.0 13.0 0.00 0.00 0.00 61 1011.0
20240526174401 76 41 7.0 15.0 0.00 0.00 0.00 61 1011.1
20240526173903 75 102 7.0 15.0 0.00 0.00 0.00 60 1011.2
20240526173401 76 141 7.0 15.0 0.00 0.00 0.00 60 1011.2
20240526172903 76 56 7.0 15.0 0.00 0.00 0.00 60 1011.3
20240526172402 76 133 7.0 14.0 0.00 0.00 0.00 61 1011.4
20240526171905 76 76 6.0 14.0 0.00 0.00 0.00 61 1011.5
20240526171403 76 153 6.0 14.0 0.00 0.00 0.00 62 1011.6
20240526170859 75 73 6.0 13.0 0.00 0.00 0.00 63 1011.9
20240526170359 75 108 6.0 14.0 0.00 0.00 0.00 64 1012.0
20240526165858 75 172 6.0 15.0 0.00 0.00 0.00 64 1012.2
20240526165357 75 141 6.0 15.0 0.00 0.00 0.00 65 1012.2
20240526164857 75 32 7.0 14.0 0.00 0.00 0.00 67 1012.1
20240526164358 75 93 7.0 15.0 0.00 0.00 0.00 67 1012.1
20240526163852 75 93 6.0 15.0 0.00 0.00 0.00 67 1012.1
20240526163847 75 107 6.0 13.0 0.00 0.00 0.00 68 1012.2
20240526163107 75 56 6.0 12.0 0.00 0.00 0.00 69 1012.4
20240526162941 74 70 6.0 12.0 0.00 0.00 0.00 69 1012.3
20240526161827 74 67 5.0 11.0 0.00 0.00 0.00 70 1012.6
20240526161322 74 130 5.0 11.0 0.00 0.00 0.00 70 1012.6
20240526160816 74 124 5.0 10.0 0.00 0.00 0.00 70 1012.7
20240526160310 74 125 5.0 10.0 0.00 0.00 0.00 71 1012.8
20240526155804 74 132 5.0 11.0 0.00 0.00 0.00 71 1012.9
20240526155257 73 115 6.0 13.0 0.00 0.00 0.00 72 1012.9
20240526154751 73 151 6.0 13.0 0.00 0.00 0.00 71 1013.0
20240526154246 74 130 5.0 14.0 0.00 0.00 0.00 71 1013.1
20240526153740 73 143 5.0 14.0 0.00 0.00 0.00 73 1013.1
20240526153233 73 138 6.0 12.0 0.00 0.00 0.00 72 1013.1
20240526152731 73 150 6.0 14.0 0.00 0.00 0.00 72 1012.9
20240526152231 73 94 5.0 14.0 0.00 0.00 0.00 73 1012.9
20240526151731 72 120 5.0 14.0 0.00 0.00 0.00 74 1013.0
20240526151231 73 98 5.0 14.0 0.00 0.00 0.00 75 1013.1
20240526150729 72 57 4.0 12.0 0.00 0.00 0.00 75 1013.1
20240526150229 72 67 4.0 11.0 0.00 0.00 0.00 75 1012.9
20240526145732 72 65 5.0 11.0 0.00 0.00 0.00 75 1012.9
20240526145500 72 51 5.0 10.0 0.00 0.00 0.00 76 1013.0
20240526144727 71 169 5.0 12.0 0.00 0.00 0.00 77 1013.1
20240526144227 71 116 6.0 15.0 0.00 0.00 0.00 77 1013.0
20240526143958 71 120 5.0 15.0 0.00 0.00 0.00 77 1013.1
20240526143225 71 81 3.0 8.0 0.00 0.00 0.00 77 1013.3
20240526142726 70 143 4.0 11.0 0.00 0.00 0.00 78 1013.4
20240526142225 70 103 5.0 11.0 0.00 0.00 0.00 77 1013.5
20240526141726 70 77 5.0 11.0 0.00 0.00 0.00 78 1013.1
20240526141224 69 128 6.0 12.0 0.00 0.00 0.00 77 1013.0
20240526140722 70 139 5.0 12.0 0.00 0.00 0.00 77 1013.1
20240526140219 70 79 4.0 11.0 0.00 0.00 0.00 76 1013.4
20240526135720 70 131 4.0 7.0 0.00 0.00 0.00 76 1013.6
20240526135214 70 134 3.0 7.0 0.00 0.00 0.00 76 1013.8
20240526134708 70 118 4.0 9.0 0.00 0.00 0.00 76 1014.1
20240526134202 70 143 4.0 9.0 0.00 0.00 0.00 76 1014.2
20240526133656 70 122 3.0 8.0 0.00 0.00 0.00 77 1014.2
20240526133150 69 126 3.0 8.0 0.00 0.00 0.00 77 1014.4
20240526132643 69 69 3.0 8.0 0.00 0.00 0.00 77 1014.5
20240526132137 69 98 3.0 9.0 0.00 0.00 0.00 77 1014.2
20240526131632 69 149 3.0 9.0 0.00 0.00 0.00 78 1014.3
20240526131125 68 145 3.0 6.0 0.00 0.00 0.00 77 1014.4
20240526130620 68 137 2.0 6.0 0.00 0.00 0.00 78 1014.6
20240526130113 67 58 3.0 6.0 0.00 0.00 0.00 79 1014.8
20240526125840 67 123 2.0 5.0 0.00 0.00 0.00 79 1014.8
20240526125333 67 143 2.0 4.0 0.00 0.00 0.00 81 1014.5
20240526124556 66 135 2.0 4.0 0.00 0.00 0.00 81 1014.3
20240526124050 66 52 2.0 5.0 0.00 0.00 0.00 81 1014.1
20240526123544 66 58 3.0 6.0 0.00 0.00 0.00 81 1014.0
20240526123038 66 45 2.0 6.0 0.00 0.00 0.00 82 1013.9
20240526122536 65 54 2.0 6.0 0.00 0.00 0.00 83 1013.6
20240526122022 65 57 2.0 6.0 0.00 0.00 0.00 83 1013.5
20240526121516 64 58 2.0 5.0 0.00 0.00 0.00 84 1013.7
20240526121010 64 59 2.0 5.0 0.00 0.00 0.00 85 1013.5
20240526120504 63 62 1.0 4.0 0.00 0.00 0.00 85 1013.7
20240526115957 63 54 1.0 3.0 0.00 0.00 0.00 86 1013.9
20240526115451 62 65 1.0 4.0 0.00 0.00 0.00 87 1013.8
20240526114946 61 76 1.0 4.0 0.00 0.00 0.00 88 1013.8
20240526114440 61 49 1.0 4.0 0.00 0.00 0.00 87 1014.0
20240526113934 60 64 0.0 3.0 0.00 0.00 0.00 88 1014.0
20240526113428 60 20 0.0 1.0 0.00 0.00 0.00 89 1014.1
20240526112922 59 18 0.0 2.0 0.00 0.00 0.00 89 1014.2
20240526112647 59 82 0.0 2.0 0.00 0.00 0.00 90 1014.3
20240526111910 58 83 1.0 3.0 0.00 0.00 0.00 90 1014.3
20240526111403 58 16 1.0 3.0 0.00 0.00 0.00 90 1014.3
20240526110858 58 352 0.0 2.0 0.00 0.00 0.00 91 1014.2
20240526110352 58 6 0.0 1.0 0.00 0.00 0.00 91 1014.3
20240526110118 57 70 0.0 0.0 0.00 0.13 0.00 92 1014.2
20240526105339 56 70 0.0 0.0 0.00 0.21 0.00 91 1014.1
20240526104833 56 112 0.0 0.0 0.00 0.22 0.00 91 1013.9
20240526104600 56 112 0.0 0.0 0.00 0.22 0.00 91 1013.8
20240526103822 56 112 0.0 0.0 0.00 0.23 0.00 91 1013.7
20240526103316 55 112 0.0 0.0 0.00 0.26 0.00 91 1013.7
20240526102810 55 112 0.0 0.0 0.00 0.27 0.00 91 1013.6
20240526102805 55 112 0.0 1.0 0.00 0.27 0.00 91 1013.7
20240526102028 55 112 0.0 1.0 0.00 0.27 0.00 91 1013.5
20240526101252 55 112 0.0 1.0 0.00 0.27 0.00 91 1013.6
20240526100746 55 112 0.0 0.0 0.00 0.27 0.00 91 1013.6
20240526100240 55 112 0.0 0.0 0.00 0.27 0.00 90 1013.6
20240526095734 55 112 0.0 0.0 0.00 0.28 0.00 90 1013.8
20240526095228 55 112 0.0 0.0 0.00 0.30 0.00 90 1013.7
20240526094723 55 112 0.0 0.0 0.00 0.30 0.00 90 1013.8
20240526094215 55 112 0.0 0.0 0.00 0.30 0.00 90 1013.9
20240526093710 55 112 0.0 0.0 0.00 0.30 0.00 90 1014.3
20240526093204 56 112 0.0 1.0 0.00 0.30 0.00 90 1014.2
20240526092658 56 112 0.0 1.0 0.00 0.30 0.00 90 1014.1
20240526092151 56 112 0.0 1.0 0.00 0.30 0.00 89 1013.7
20240526091646 56 112 0.0 1.0 0.00 0.30 0.00 90 1013.7
20240526091140 56 112 0.0 1.0 0.00 0.30 0.00 89 1013.7
20240526090633 56 80 0.0 2.0 0.00 0.30 0.00 89 1013.7
20240526090128 56 82 0.0 2.0 0.00 0.30 0.00 89 1013.8
20240526085852 56 46 0.0 2.0 0.00 0.30 0.00 89 1013.8
20240526085115 56 54 0.0 2.0 0.00 0.30 0.00 89 1014.0
20240526084610 56 56 0.0 1.0 0.00 0.30 0.00 89 1014.2
20240526084103 56 333 0.0 1.0 0.00 0.30 0.00 89 1014.4
20240526083558 56 356 0.0 1.0 0.00 0.30 0.00 89 1014.5
20240526083324 56 30 0.0 0.0 0.00 0.30 0.00 88 1014.6
20240526082545 56 32 0.0 1.0 0.00 0.30 0.00 88 1014.4
20240526082040 56 32 0.0 1.0 0.00 0.31 0.00 87 1014.5
20240526081804 57 356 0.0 1.0 0.00 0.31 0.00 87 1014.7
20240526081028 57 357 0.0 2.0 0.00 0.31 0.00 87 1014.7
20240526080522 57 357 0.0 2.0 0.00 0.31 0.00 87 1014.8
20240526080246 57 357 0.0 2.0 0.00 0.31 0.00 86 1014.8
20240526075509 57 356 0.0 2.0 0.00 0.31 0.00 86 1014.9
20240526075004 57 22 0.0 2.0 0.00 0.31 0.00 86 1014.9
20240526074458 57 340 0.0 1.0 0.00 0.31 0.00 86 1014.8
20240526073951 57 326 0.0 2.0 0.00 0.31 0.00 85 1014.8
20240526073716 58 326 0.0 2.0 0.00 0.31 0.00 84 1014.8
20240526072940 58 59 0.0 1.0 0.00 0.31 0.00 84 1014.5
20240526072440 57 60 0.0 1.0 0.00 0.31 0.00 83 1014.4
20240526071940 58 60 0.0 0.0 0.00 0.31 0.00 82 1014.5
20240526071927 58 60 0.0 1.0 0.00 0.31 0.00 80 1014.5
20240526071825 58 60 0.0 1.0 0.00 0.31 0.00 82 1014.5
20240526071724 58 61 0.0 1.0 0.00 0.31 0.00 81 1014.3
20240526071620 58 60 0.0 1.0 0.00 0.31 0.00 81 1014.5
20240526065937 58 60 0.0 1.0 0.00 0.31 0.00 80 1014.5
20240526065436 59 61 0.0 2.0 0.00 0.31 0.00 79 1014.6
20240526064937 59 60 0.0 2.0 0.00 0.31 0.00 78 1014.5
20240526064443 59 58 1.0 3.0 0.00 0.31 0.00 77 1014.3
20240526064438 59 344 0.0 3.0 0.00 0.31 0.00 77 1014.4
20240526063705 59 351 0.0 3.0 0.00 0.31 0.00 75 1014.3
20240526062936 59 340 0.0 3.0 0.00 0.31 0.00 75 1014.2
20240526062434 58 354 0.0 1.0 0.00 0.31 0.00 74 1014.2
20240526061932 58 353 0.0 1.0 0.00 0.31 0.00 74 1014.3
20240526061434 58 354 0.0 0.0 0.00 0.31 0.00 74 1014.4
20240526060931 59 354 0.0 0.0 0.00 0.31 0.00 74 1014.4
20240526060430 59 354 0.0 0.0 0.00 0.31 0.00 73 1014.3
20240526055931 59 354 0.0 0.0 0.00 0.31 0.00 72 1014.1
20240526055431 60 354 0.0 0.0 0.00 0.31 0.00 72 1013.9
20240526054932 60 354 0.0 0.0 0.00 0.31 0.00 72 1013.7
20240526054430 60 354 0.0 0.0 0.00 0.31 0.00 71 1013.6
20240526053932 60 354 0.0 0.0 0.00 0.31 0.00 71 1013.6
20240526053431 60 354 0.0 0.0 0.00 0.31 0.00 71 1013.6
20240526053203 60 354 0.0 1.0 0.00 0.31 0.00 71 1013.6
20240526052427 60 354 0.0 1.0 0.00 0.31 0.00 71 1013.7
20240526051926 61 354 0.0 1.0 0.00 0.31 0.00 70 1013.7
20240526051657 61 354 0.0 0.0 0.00 0.31 0.00 70 1013.7
20240526050927 61 354 0.0 0.0 0.00 0.31 0.00 69 1013.6
20240526050427 62 354 0.0 0.0 0.00 0.31 0.00 69 1013.7
20240526045926 62 354 0.0 0.0 0.00 0.31 0.00 69 1013.7
20240526045427 61 354 0.0 1.0 0.00 0.31 0.00 69 1013.7
20240526044926 62 354 0.0 1.0 0.00 0.31 0.00 69 1013.9
20240526044427 62 354 0.0 1.0 0.00 0.31 0.00 69 1013.8
20240526043923 61 354 0.0 1.0 0.00 0.31 0.00 70 1013.9
20240526043422 61 354 0.0 0.0 0.00 0.31 0.00 70 1013.9
20240526042923 61 354 0.0 1.0 0.00 0.31 0.00 69 1014.0
20240526042423 62 354 0.0 1.0 0.00 0.31 0.00 70 1014.0
20240526041924 62 354 0.0 1.0 0.00 0.31 0.00 69 1014.0
20240526041426 62 354 0.0 1.0 0.00 0.31 0.00 69 1014.1
20240526040925 62 354 0.0 0.0 0.00 0.31 0.00 69 1014.0
20240526040425 62 354 0.0 0.0 0.00 0.31 0.00 68 1014.0
20240526035926 62 354 0.0 0.0 0.00 0.31 0.31 67 1014.0
20240526035420 63 354 0.0 0.0 0.00 0.31 0.31 67 1013.9
20240526034913 63 354 0.0 0.0 0.00 0.31 0.31 67 1013.8
20240526034408 62 354 0.0 0.0 0.00 0.31 0.31 67 1013.8
20240526033901 62 355 0.0 0.0 0.00 0.31 0.31 67 1013.8
20240526033355 62 355 0.0 0.0 0.00 0.31 0.31 68 1013.8
20240526032849 62 355 0.0 0.0 0.00 0.31 0.31 66 1013.8
20240526032613 63 355 0.0 0.0 0.00 0.31 0.31 66 1013.8
20240526031838 63 355 0.0 0.0 0.00 0.31 0.31 66 1013.8
20240526031602 63 355 0.0 0.0 0.00 0.31 0.31 65 1013.7
20240526030826 64 355 0.0 0.0 0.00 0.31 0.31 64 1013.7
20240526030319 64 355 0.0 0.0 0.00 0.31 0.31 64 1013.7
20240526025814 64 355 0.0 0.0 0.00 0.31 0.31 63 1013.7
20240526025538 65 355 0.0 0.0 0.00 0.31 0.31 63 1013.6
20240526024802 65 355 0.0 0.0 0.00 0.31 0.31 62 1013.5
20240526024527 65 355 0.0 0.0 0.00 0.31 0.31 61 1013.5
20240526023749 66 355 0.0 0.0 0.00 0.31 0.31 59 1013.3
20240526023514 66 355 0.0 0.0 0.00 0.31 0.31 59 1013.3
20240526023007 67 355 0.0 1.0 0.00 0.31 0.31 58 1013.3
20240526022231 67 355 0.0 1.0 0.00 0.31 0.31 57 1013.2
20240526021725 67 352 0.0 0.0 0.00 0.31 0.31 57 1013.1
20240526021220 67 347 0.0 0.0 0.00 0.31 0.31 56 1013.1
20240526020713 68 348 0.0 0.0 0.00 0.31 0.31 56 1013.0
20240526020207 68 347 0.0 1.0 0.00 0.31 0.31 54 1013.1
20240526015701 69 347 0.0 1.0 0.00 0.31 0.31 53 1012.9
20240526015155 69 347 0.0 1.0 0.00 0.31 0.31 52 1012.8
20240526014649 70 348 0.0 1.0 0.00 0.31 0.31 51 1012.8
20240526014143 70 348 0.0 1.0 0.00 0.31 0.31 50 1012.8
20240526013638 71 348 0.0 1.0 0.00 0.31 0.31 50 1012.7
20240526013132 71 348 0.0 1.0 0.00 0.31 0.31 49 1012.7
20240526012625 72 347 0.0 2.0 0.00 0.31 0.31 48 1012.7
20240526012119 72 347 0.0 2.0 0.00 0.31 0.31 47 1012.6
20240526011614 72 314 0.0 2.0 0.00 0.31 0.31 47 1012.5
20240526011107 73 308 1.0 3.0 0.00 0.31 0.31 46 1012.4
20240526010601 73 307 1.0 5.0 0.00 0.31 0.31 45 1012.3
20240526010100 74 316 0.0 3.0 0.00 0.31 0.31 44 1012.2
20240526010055 73 341 1.0 5.0 0.00 0.31 0.31 45 1012.3
20240526005043 74 335 0.0 3.0 0.00 0.31 0.31 44 1012.2
20240526004537 74 342 1.0 5.0 0.00 0.31 0.31 44 1012.2
20240526004032 75 32 2.0 5.0 0.00 0.31 0.31 43 1012.2
20240526003525 75 334 2.0 7.0 0.00 0.31 0.31 44 1012.1
20240526003019 75 43 2.0 7.0 0.00 0.31 0.31 45 1012.1
20240526002514 76 274 2.0 8.0 0.00 0.31 0.31 45 1012.0
20240526002007 76 278 2.0 8.0 0.00 0.31 0.31 45 1011.9
20240526001503 76 274 2.0 6.0 0.00 0.31 0.31 46 1011.9
20240526001226 77 296 1.0 6.0 0.00 0.31 0.31 45 1011.8
20240526000449 77 299 2.0 5.0 0.00 0.31 0.31 46 1011.8
20240526000215 77 309 3.0 7.0 0.00 0.31 0.31 44 1011.7
20240525235437 78 32 3.0 7.0 0.00 0.31 0.31 43 1011.5
20240525235203 78 304 2.0 7.0 0.00 0.31 0.31 43 1011.3
20240525234656 78 310 2.0 6.0 0.00 0.31 0.31 43 1011.3
20240525233920 78 293 2.0 6.0 0.00 0.31 0.31 44 1011.2
20240525233413 78 307 3.0 9.0 0.00 0.31 0.31 45 1011.1
20240525232907 78 223 2.0 8.0 0.00 0.31 0.31 46 1011.1
20240525232405 78 353 3.0 8.0 0.00 0.31 0.31 44 1011.0
20240525231904 78 11 3.0 8.0 0.00 0.31 0.31 45 1011.0
20240525231410 78 249 3.0 7.0 0.00 0.31 0.31 45 1011.0
20240525230905 78 24 3.0 8.0 0.00 0.31 0.31 45 1010.9
20240525230403 79 307 4.0 13.0 0.00 0.31 0.31 45 1010.8
20240525225904 79 316 4.0 13.0 0.00 0.31 0.31 44 1010.8
20240525225404 79 323 4.0 10.0 0.00 0.31 0.31 42 1010.8
20240525225138 79 297 4.0 9.0 0.00 0.31 0.31 42 1010.7
20240525225025 80 332 2.0 7.0 0.00 0.31 0.31 43 1010.7
20240525223904 80 25 2.0 7.0 0.00 0.31 0.31 44 1010.7
20240525223405 80 257 3.0 8.0 0.00 0.31 0.31 45 1010.8
20240525222907 80 328 3.0 8.0 0.00 0.31 0.31 44 1010.8
20240525222405 80 293 3.0 7.0 0.00 0.31 0.31 45 1010.8
20240525221904 80 245 4.0 10.0 0.00 0.31 0.31 45 1010.8
20240525221404 80 316 3.0 10.0 0.00 0.31 0.31 44 1010.7
20240525220906 80 321 2.0 8.0 0.00 0.31 0.31 44 1010.8
20240525220400 79 240 4.0 11.0 0.00 0.31 0.31 45 1010.8
20240525215854 79 298 4.0 11.0 0.00 0.31 0.31 44 1010.8
20240525215351 80 354 3.0 9.0 0.00 0.31 0.31 43 1010.7
20240525214849 79 202 4.0 10.0 0.00 0.31 0.31 44 1010.8
20240525214844 80 258 4.0 10.0 0.00 0.31 0.31 43 1010.7
20240525213841 79 217 5.0 10.0 0.00 0.31 0.31 43 1010.8
20240525213613 79 300 6.0 13.0 0.00 0.31 0.31 43 1010.8
20240525212843 80 295 6.0 13.0 0.00 0.31 0.31 42 1010.7
20240525212340 80 187 5.0 12.0 0.00 0.31 0.31 44 1010.7
20240525211840 80 304 4.0 11.0 0.00 0.31 0.31 42 1010.6
20240525211339 80 280 5.0 11.0 0.00 0.31 0.31 44 1010.6
20240525210838 80 285 4.0 11.0 0.00 0.31 0.31 44 1010.6
20240525210338 80 352 5.0 15.0 0.00 0.31 0.31 46 1010.6
20240525205836 80 283 5.0 15.0 0.00 0.31 0.31 44 1010.6
20240525205607 80 352 4.0 11.0 0.00 0.31 0.31 44 1010.6
20240525204837 81 299 3.0 10.0 0.00 0.31 0.31 44 1010.6
20240525204335 80 298 5.0 12.0 0.00 0.31 0.31 45 1010.6